Location: Asheville, NC
(35.6000°N, 82.5500°W)
Time: 18:47:00
(UTC-04:00)

AAUSAT CUBESAT 2 - Pass Details

Date: 12 March 2018
Orbit: 576 x 592 km, 97.5° (Epoch: 20 June)

Event Time Altitude Azimuth Distance (km) Brightness Sun altitude
Rises 20:00:34 0° 149° (SSE) 2,780 ? -6.0°
Reaches altitude 10° 20:02:48 10° 141° (SE) 1,888 ? -6.4°
Maximum altitude 20:06:35 37° 73° (ENE) 909 ? -7.2°
Drops below altitude 10° 20:10:24 10° 6° (N) 1,909 ? -8.0°
Sets 20:12:41 0° 358° (N) 2,816 ? -8.4°
